{"data":{"norad_id":62894,"epoch":"2026-09-21T18:55:42.847968Z","epoch_age_seconds":56843,"freshness":"FRESH","line1":"1 62894U 25024R   26264.78869037  .00008210  00000+0  30752-3 0  9990","line2":"2 62894  43.0023 298.1699 0001676 274.3378  85.7282 15.27583243 92251","mean_motion":15.27583243,"eccentricity":0.0001676,"inclination_deg":43.0023,"raan_deg":298.1699,"arg_perigee_deg":274.3378,"mean_anomaly_deg":85.7282,"bstar":0.00030752,"rev_number":9225,"period_min":94.266548588999,"perigee_km":481.88945218598,"apogee_km":484.18931851035,"semimajor_km":6861.1763853482,"source":"CELESTRAK","updated_at":"2026-09-22T09:00:49.705010Z"}}